Time,TemperatureF,DewpointF,PressureIn,WindDirection,WindDirectionDegrees,WindSpeedMPH,WindSpeedGustMPH,Humidity,HourlyPrecipIn,Conditions,Clouds,dailyrainin,SoftwareType,DateUTC
2013-05-06 00:04:00,56.8,54.3,30.18,SW,225,2.0,3.0,91,0.00,,,-99.99,meteohub,2013-05-05 22:04:00,
2013-05-06 00:19:00,56.8,54.5,30.17,SW,225,2.0,6.0,92,0.00,,,0.00,meteohub,2013-05-05 22:19:00,
2013-05-06 00:35:00,56.7,54.3,30.17,SW,225,4.0,6.0,92,0.00,,,0.00,meteohub,2013-05-05 22:35:00,
2013-05-06 00:50:00,56.5,54.0,30.17,SW,225,2.0,4.0,91,0.00,,,0.00,meteohub,2013-05-05 22:50:00,
2013-05-06 01:05:00,56.3,53.8,30.17,WSW,248,3.0,5.0,91,0.00,,,0.00,meteohub,2013-05-05 23:05:00,
2013-05-06 01:20:00,55.9,53.1,30.17,West,270,4.0,5.0,90,0.00,,,0.00,meteohub,2013-05-05 23:20:00,
2013-05-06 01:35:00,55.8,52.7,30.17,West,270,4.0,5.0,89,0.00,,,0.00,meteohub,2013-05-05 23:35:00,
2013-05-06 01:50:00,55.9,53.1,30.16,West,270,5.0,7.0,90,0.00,,,0.00,meteohub,2013-05-05 23:50:00,
2013-05-06 02:05:00,55.9,53.1,30.16,WSW,248,4.0,5.0,90,0.00,,,0.00,meteohub,2013-05-06 00:05:00,
2013-05-06 02:21:00,55.8,52.9,30.15,WSW,248,4.0,7.0,90,0.00,,,0.00,meteohub,2013-05-06 00:21:00,
2013-05-06 02:36:00,55.8,53.2,30.14,West,270,5.0,7.0,91,0.00,,,0.00,meteohub,2013-05-06 00:36:00,
2013-05-06 02:51:00,55.6,53.1,30.14,WSW,248,4.0,6.0,91,0.00,,,0.00,meteohub,2013-05-06 00:51:00,
2013-05-06 03:06:00,55.2,52.7,30.14,West,270,1.0,5.0,91,0.00,,,0.00,meteohub,2013-05-06 01:06:00,
2013-05-06 03:22:00,54.9,52.0,30.14,West,270,2.0,3.0,90,0.00,,,0.00,meteohub,2013-05-06 01:22:00,
2013-05-06 03:37:00,55.2,52.9,30.14,WSW,248,2.0,4.0,92,0.00,,,0.00,meteohub,2013-05-06 01:37:00,
2013-05-06 03:53:00,55.8,53.4,30.14,WSW,248,2.0,4.0,92,0.00,,,0.00,meteohub,2013-05-06 01:53:00,
2013-05-06 04:09:00,55.6,53.2,30.14,SW,225,2.0,5.0,92,0.00,,,0.00,meteohub,2013-05-06 02:09:00,
2013-05-06 04:24:00,55.2,52.9,30.14,SW,225,1.0,4.0,92,0.00,,,0.00,meteohub,2013-05-06 02:24:00,
2013-05-06 04:39:00,55.0,53.1,30.14,SW,225,2.0,4.0,93,0.00,,,0.00,meteohub,2013-05-06 02:39:00,
2013-05-06 04:55:00,55.0,53.1,30.14,SW,225,3.0,4.0,93,0.00,,,0.00,meteohub,2013-05-06 02:55:00,
2013-05-06 05:10:00,54.5,52.5,30.13,SW,225,1.0,2.0,93,0.00,,,0.00,meteohub,2013-05-06 03:10:00,
2013-05-06 05:26:00,54.3,52.7,30.13,SW,225,0.0,2.0,94,0.00,,,0.00,meteohub,2013-05-06 03:26:00,
2013-05-06 05:41:00,54.1,52.5,30.13,SW,225,0.0,0.0,94,0.00,,,0.00,meteohub,2013-05-06 03:41:00,
2013-05-06 05:56:00,54.1,52.5,30.13,SW,225,0.0,2.0,94,0.00,,,0.00,meteohub,2013-05-06 03:56:00,
2013-05-06 06:12:00,54.0,52.3,30.13,SW,225,0.0,0.0,94,0.00,,,0.00,meteohub,2013-05-06 04:12:00,
2013-05-06 06:27:00,53.8,52.2,30.13,SW,225,0.0,2.0,94,0.00,,,0.00,meteohub,2013-05-06 04:27:00,
2013-05-06 06:42:00,54.0,52.2,30.13,SW,225,1.0,4.0,93,0.00,,,0.00,meteohub,2013-05-06 04:42:00,
2013-05-06 06:57:00,54.1,51.8,30.13,SW,225,1.0,2.0,92,0.00,,,0.00,meteohub,2013-05-06 04:57:00,
2013-05-06 07:12:00,54.3,52.0,30.13,SW,225,1.0,2.0,92,0.00,,,0.00,meteohub,2013-05-06 05:12:00,
2013-05-06 07:28:00,54.9,52.0,30.14,SW,225,2.0,3.0,90,0.00,,,0.00,meteohub,2013-05-06 05:28:00,
2013-05-06 07:43:00,55.2,52.0,30.14,SW,225,1.0,2.0,89,0.00,,,0.00,meteohub,2013-05-06 05:43:00,
2013-05-06 07:59:00,56.1,52.3,30.14,SW,225,1.0,2.0,87,0.00,,,0.00,meteohub,2013-05-06 05:59:00,
2013-05-06 08:14:00,56.5,52.3,30.14,SW,225,1.0,4.0,86,0.00,,,0.00,meteohub,2013-05-06 06:14:00,
2013-05-06 08:30:00,57.6,53.8,30.15,WSW,248,3.0,5.0,87,0.00,,,0.00,meteohub,2013-05-06 06:30:00,
2013-05-06 08:45:00,57.6,53.8,30.15,WSW,248,4.0,7.0,87,0.00,,,0.00,meteohub,2013-05-06 06:45:00,
2013-05-06 09:01:00,58.5,54.7,30.15,WSW,248,4.0,8.0,87,0.00,,,0.00,meteohub,2013-05-06 07:01:00,
2013-05-06 09:16:00,58.6,54.7,30.15,SW,225,5.0,8.0,86,0.00,,,0.00,meteohub,2013-05-06 07:16:00,
2013-05-06 09:31:00,59.0,55.2,30.16,WSW,248,6.0,10.0,87,0.00,,,0.00,meteohub,2013-05-06 07:31:00,
2013-05-06 09:46:00,59.5,55.4,30.16,WSW,248,5.0,8.0,86,0.00,,,0.00,meteohub,2013-05-06 07:46:00,
2013-05-06 10:01:00,60.6,55.8,30.16,SW,225,5.0,8.0,84,0.00,,,0.00,meteohub,2013-05-06 08:01:00,
2013-05-06 10:16:00,61.3,55.8,30.17,SW,225,5.0,9.0,82,0.00,,,0.00,meteohub,2013-05-06 08:16:00,
2013-05-06 10:32:00,62.1,56.1,30.17,SW,225,6.0,11.0,81,0.00,,,0.00,meteohub,2013-05-06 08:32:00,
2013-05-06 10:47:00,62.2,56.1,30.17,SW,225,6.0,10.0,80,0.00,,,0.00,meteohub,2013-05-06 08:47:00,
2013-05-06 11:03:00,63.0,56.7,30.17,SSW,203,6.0,10.0,80,0.00,,,0.00,meteohub,2013-05-06 09:03:00,
2013-05-06 11:18:00,64.0,56.7,30.17,SW,225,6.0,11.0,77,0.00,,,0.00,meteohub,2013-05-06 09:18:00,
2013-05-06 11:34:00,64.0,56.3,30.17,WSW,248,4.0,10.0,76,0.00,,,0.00,meteohub,2013-05-06 09:34:00,
2013-05-06 11:49:00,65.3,55.2,30.17,SW,225,5.0,10.0,70,0.00,,,0.00,meteohub,2013-05-06 09:49:00,
2013-05-06 12:05:00,65.1,55.9,30.17,SSW,203,4.0,7.0,72,0.00,,,0.00,meteohub,2013-05-06 10:05:00,
2013-05-06 12:20:00,66.0,55.6,30.17,SW,225,6.0,10.0,69,0.00,,,0.00,meteohub,2013-05-06 10:20:00,
2013-05-06 12:36:00,66.4,56.3,30.17,WSW,248,8.0,11.0,70,0.00,,,0.00,meteohub,2013-05-06 10:36:00,
2013-05-06 12:51:00,65.8,57.2,30.17,SSW,203,6.0,11.0,73,0.00,,,0.00,meteohub,2013-05-06 10:51:00,
2013-05-06 13:06:00,65.7,56.7,30.17,SSW,203,6.0,11.0,72,0.00,,,0.00,meteohub,2013-05-06 11:06:00,
2013-05-06 13:21:00,66.0,56.3,30.17,SW,225,8.0,11.0,71,0.00,,,0.00,meteohub,2013-05-06 11:21:00,
2013-05-06 13:36:00,66.6,57.2,30.16,WSW,248,6.0,12.0,72,0.00,,,0.00,meteohub,2013-05-06 11:36:00,
2013-05-06 13:52:00,66.6,57.6,30.16,SW,225,4.0,12.0,73,0.00,,,0.00,meteohub,2013-05-06 11:52:00,
2013-05-06 14:07:00,66.4,56.7,30.16,SW,225,8.0,13.0,71,0.00,,,0.00,meteohub,2013-05-06 12:07:00,
2013-05-06 14:22:00,67.3,56.5,30.16,SW,225,6.0,12.0,68,0.00,,,0.00,meteohub,2013-05-06 12:22:00,
2013-05-06 14:37:00,67.6,55.0,30.15,SW,225,5.0,11.0,64,0.00,,,0.00,meteohub,2013-05-06 12:37:00,
2013-05-06 14:53:00,67.8,56.1,30.15,South,180,5.0,11.0,66,0.00,,,0.00,meteohub,2013-05-06 12:53:00,
2013-05-06 15:08:00,67.8,56.3,30.14,SW,225,6.0,10.0,66,0.00,,,0.00,meteohub,2013-05-06 13:08:00,
2013-05-06 15:23:00,67.6,56.7,30.14,SSW,203,5.0,10.0,68,0.00,,,0.00,meteohub,2013-05-06 13:23:00,
2013-05-06 15:39:00,67.8,56.7,30.13,WSW,248,6.0,12.0,67,0.00,,,0.00,meteohub,2013-05-06 13:39:00,
2013-05-06 15:55:00,67.6,56.5,30.13,SSW,203,6.0,13.0,67,0.00,,,0.00,meteohub,2013-05-06 13:55:00,
2013-05-06 16:10:00,67.3,56.3,30.12,SW,225,5.0,13.0,68,0.00,,,0.00,meteohub,2013-05-06 14:10:00,
2013-05-06 16:25:00,67.8,56.7,30.12,SSW,203,6.0,10.0,67,0.00,,,0.00,meteohub,2013-05-06 14:25:00,
2013-05-06 16:41:00,68.2,56.5,30.12,SW,225,6.0,11.0,66,0.00,,,0.00,meteohub,2013-05-06 14:41:00,
2013-05-06 16:56:00,67.8,55.9,30.12,SSW,203,6.0,10.0,65,0.00,,,0.00,meteohub,2013-05-06 14:56:00,
2013-05-06 17:11:00,67.6,56.3,30.12,SSW,203,6.0,10.0,67,0.00,,,0.00,meteohub,2013-05-06 15:11:00,
2013-05-06 17:26:00,67.6,56.1,30.12,SW,225,5.0,9.0,66,0.00,,,0.00,meteohub,2013-05-06 15:26:00,
2013-05-06 17:42:00,67.5,56.8,30.11,SSW,203,5.0,9.0,68,0.00,,,0.00,meteohub,2013-05-06 15:42:00,
2013-05-06 17:57:00,66.9,56.1,30.11,WSW,248,6.0,10.0,68,0.00,,,0.00,meteohub,2013-05-06 15:57:00,
2013-05-06 18:12:00,66.0,56.1,30.11,SW,225,6.0,12.0,70,0.00,,,0.00,meteohub,2013-05-06 16:12:00,
2013-05-06 18:27:00,65.8,57.0,30.11,SSW,203,5.0,11.0,73,0.00,,,0.00,meteohub,2013-05-06 16:27:00,
2013-05-06 18:43:00,65.7,56.8,30.11,SW,225,6.0,11.0,73,0.00,,,0.00,meteohub,2013-05-06 16:43:00,
2013-05-06 18:58:00,65.3,57.0,30.11,SW,225,4.0,10.0,74,0.00,,,0.00,meteohub,2013-05-06 16:58:00,
2013-05-06 19:13:00,65.1,56.7,30.11,SSW,203,5.0,9.0,74,0.00,,,0.00,meteohub,2013-05-06 17:13:00,
2013-05-06 19:29:00,64.0,56.5,30.11,SW,225,6.0,10.0,76,0.00,,,0.00,meteohub,2013-05-06 17:29:00,
2013-05-06 19:44:00,63.9,56.7,30.11,SW,225,3.0,9.0,77,0.00,,,0.00,meteohub,2013-05-06 17:44:00,
2013-05-06 19:59:00,63.1,56.5,30.11,SW,225,5.0,10.0,79,0.00,,,0.00,meteohub,2013-05-06 17:59:00,
2013-05-06 20:15:00,62.8,56.8,30.11,SSW,203,3.0,6.0,81,0.00,,,0.00,meteohub,2013-05-06 18:15:00,
2013-05-06 20:30:00,61.9,56.8,30.11,SSW,203,3.0,7.0,83,0.00,,,0.00,meteohub,2013-05-06 18:30:00,
2013-05-06 20:46:00,61.2,56.7,30.12,WSW,248,4.0,7.0,85,0.00,,,0.00,meteohub,2013-05-06 18:46:00,
2013-05-06 21:01:00,60.3,56.3,30.12,SW,225,3.0,5.0,87,0.00,,,0.00,meteohub,2013-05-06 19:01:00,
2013-05-06 21:17:00,59.9,56.3,30.12,SW,225,4.0,6.0,88,0.00,,,0.00,meteohub,2013-05-06 19:17:00,
2013-05-06 21:32:00,59.5,56.5,30.13,WSW,248,2.0,5.0,89,0.00,,,0.00,meteohub,2013-05-06 19:32:00,
2013-05-06 21:48:00,59.2,56.5,30.13,SSW,203,1.0,5.0,91,0.00,,,0.00,meteohub,2013-05-06 19:48:00,
2013-05-06 22:03:00,59.2,56.5,30.13,SSW,203,1.0,4.0,91,0.00,,,0.00,meteohub,2013-05-06 20:03:00,
2013-05-06 22:19:00,58.8,56.5,30.14,SW,225,2.0,4.0,92,0.00,,,0.00,meteohub,2013-05-06 20:19:00,
2013-05-06 22:34:00,58.8,56.5,30.14,SW,225,1.0,4.0,92,0.00,,,0.00,meteohub,2013-05-06 20:34:00,
2013-05-06 22:50:00,59.0,56.7,30.14,SW,225,2.0,4.0,92,0.00,,,0.00,meteohub,2013-05-06 20:50:00,
2013-05-06 23:05:00,58.8,56.5,30.14,SW,225,2.0,5.0,92,0.00,,,0.00,meteohub,2013-05-06 21:05:00,
2013-05-06 23:21:00,58.6,56.7,30.14,WSW,248,4.0,5.0,93,0.00,,,0.00,meteohub,2013-05-06 21:21:00,
2013-05-06 23:37:00,58.6,56.7,30.13,SW,225,3.0,5.0,93,0.00,,,0.00,meteohub,2013-05-06 21:37:00,
2013-05-06 23:52:00,58.6,56.7,30.13,WSW,248,4.0,7.0,93,0.00,,,0.00,meteohub,2013-05-06 21:52:00,